DELTA 1 DEB, 10748

Orbit data source: Space-Track

DELTA 1 DEB, 10748 is space debris in SSO originally from a launch on Thu, 29 Jul 1976 UTC launched from the Air Force Western Test Range (AFWTR). Debris objects in space refer to the collection of defunct objects orbiting the Earth. Examples of debris include non-operational satellites, rocket bodies, and fragments generated from explosions, collisions, or faulty payload assembly.

Loading next visibility...
Identifier
10748, 1976-077AV
Orbit
SSO
Country
Flag of USUS
Related business
Manufacturer
Unknown
Mission
Spacecraft
Bus & Motor
Unknown
Mass
Unknown
Launch date (UTC)
1976-07-29 (49 years ago)
Launch vehicle
Unknown
Launch site
Air Force Western Test Range (AFWTR)
Object type
Payload
Rocket body
Debris
Shape & HBR
Unknown shape, 0.2 m
Radar Cross Section
Small (<0.1 m²)

Expand to show TLE details & history
Last TLE update: 17 hours ago

TLE from 17 hours ago
0 DELTA 1 DEB
1 10748U 76077AV  25291.25532478  .00000002  00000-0  40010-3 0  9992
2 10748 102.4590 270.3305 0072872 160.5486 317.0705 12.29737188208976
Epoch: 2025-10-18T06:07Z
TLE epoch observation values (Epoch: 2025-10-18T06:07:40.060Z)
Latitude
60.51056°
Longitude
-5.69702°
Altitude
1,518.39 km
Speed
7.131 km/s
True Right ascension
07h 32m 50s
True Declination
60° 22' 38"
Sunlit
Object was in daylight at epoch
Visualization orbit readout
Latitude
Unknown
Longitude
Unknown
Altitude
Unknown
Speed
Unknown
Apparent Right ascension
Unknown
Apparent Declination
Unknown
Sunlit
N/A
Visualization observer readout
Local Sidereal Time
18:13:40
Azimuth
Unknown
Elevation
Unknown
Doppler factor
Unknown
Orbital elements
Apogee altitude
1,605.786 km
Perigee altitude
1,490.267 km
Semi-major axis
7,926.163 km
Eccentricity
0.00729
Inclination
102.459°
RAAN
270.3305°
Arg. of periapsis
160.5486°
True anomaly
316.49794°
Mean anomaly
317.0705°
Eccentric anomaly
316.7846°
Mean motion
3.07573 °/min
Orbital period
117.05 mins
BSTAR
0.0004001
Loading maneuver chart data...
Computing Atmospheric mass density...
Loading historical data...
Loading historical data...
Loading historical data...
Loading historical data...
Loading historical data...
Loading historical data...
Loading historical data...

Documentation

Showing up to 5 results
|